JR2TER-13 Weather Reports


time (UTC)temp
C
wind
direction
speed
KPH
gust
KPH
rain 1hr
cm
rain 24hr
cm
rain mn
cm
humidity
%
barometer
mb
20260508171004 14 321 6.4 22.5 0.00 0.00 0.00 50 1010.1
20260508170504 14 310 17.7 22.5 0.00 0.00 0.00 50 1010.1
20260508170004 14 297 11.3 20.9 0.00 0.00 0.00 50 1010.1
20260508165504 15 303 6.4 25.7 0.00 0.00 0.00 50 1010.1
20260508165004 15 305 17.7 25.7 0.00 0.00 0.00 50 1010.1
20260508164504 15 303 8.0 19.3 0.00 0.00 0.00 50 1010.1
20260508164004 15 301 12.9 19.3 0.00 0.00 0.00 50 1010.1
20260508163503 15 296 6.4 24.1 0.00 0.00 0.00 50 1010.1
20260508163003 15 303 9.7 29.0 0.00 0.00 0.00 50 1010.1
20260508162503 15 312 14.5 29.0 0.00 0.00 0.00 50 1010.1
20260508162003 15 317 16.1 24.1 0.00 0.00 0.00 50 1010.1
20260508161504 15 317 11.3 27.4 0.00 0.00 0.00 50 1010.1
20260508161003 15 317 19.3 27.4 0.00 0.00 0.00 50 1010.1
20260508160505 15 309 17.7 29.0 0.00 0.00 0.00 50 1010.1
20260508160004 15 305 24.1 29.0 0.00 0.00 0.00 50 1010.1
20260508155504 15 310 12.9 32.2 0.00 0.00 0.00 50 1010.1
20260508155004 15 309 20.9 32.2 0.00 0.00 0.00 50 1010.1
20260508154504 15 308 24.1 27.4 0.00 0.00 0.00 50 1010.1
20260508154004 15 320 22.5 48.3 0.00 0.00 0.00 50 1010.1
20260508153504 15 320 27.4 48.3 0.00 0.00 0.00 50 1010.1
20260508153004 15 321 30.6 48.3 0.00 0.00 0.00 50 1009.1
20260508152004 16 316 30.6 43.5 0.00 0.00 0.00 50 1009.1
20260508151504 16 307 27.4 37.0 0.00 0.00 0.00 50 1009.1
20260508151003 16 310 25.7 37.0 0.00 0.00 0.00 50 1009.1
20260508150503 16 315 25.7 41.8 0.00 0.00 0.00 50 1009.1
20260508145504 16 319 16.1 37.0 0.00 0.00 0.00 50 1009.1
20260508145004 16 312 16.1 40.2 0.00 0.00 0.00 50 1009.1
20260508144005 16 328 17.7 32.2 0.00 0.00 0.00 50 1009.1
20260508143004 16 330 17.7 29.0 0.00 0.00 0.00 50 1010.1
20260508142504 16 332 16.1 53.1 0.00 0.00 0.00 50 1010.1
20260508142004 16 334 27.4 53.1 0.00 0.00 0.00 50 1010.1
20260508141003 16 336 30.6 49.9 0.00 0.00 0.00 50 1010.1
20260508140005 16 333 22.5 43.5 0.00 0.00 0.00 50 1009.1
20260508135503 16 336 17.7 43.5 0.00 0.00 0.00 50 1009.1
20260508135004 17 339 29.0 49.9 0.00 0.00 0.00 50 1009.1
20260508134505 17 340 19.3 49.9 0.00 0.00 0.00 50 1009.1
20260508134004 17 340 16.1 41.8 0.00 0.00 0.00 50 1009.1
20260508133504 17 337 25.7 43.5 0.00 0.00 0.00 50 1009.1
20260508133004 17 335 22.5 43.5 0.00 0.00 0.00 50 1009.1
20260508132504 17 335 22.5 43.5 0.00 0.00 0.00 50 1009.1
20260508132004 17 332 24.1 32.2 0.00 0.00 0.00 50 1009.1
20260508131504 17 332 19.3 32.2 0.00 0.00 0.00 50 1008.1
20260508131004 17 332 20.9 32.2 0.00 0.00 0.00 50 1008.1
20260508130504 17 332 20.9 45.1 0.00 0.00 0.00 50 1008.1
20260508130004 17 333 22.5 45.1 0.00 0.00 0.00 50 1007.1
20260508125504 17 329 20.9 45.1 0.00 0.00 0.00 50 1007.1
20260508125004 17 321 30.6 43.5 0.00 0.00 0.00 50 1007.1
20260508124504 17 316 25.7 51.5 0.00 0.00 0.00 50 1008.1
20260508124004 18 317 27.4 56.3 0.00 0.00 0.00 50 1008.1
20260508123504 18 324 41.8 56.3 0.00 0.00 0.00 50 1008.1
20260508123004 18 327 33.8 48.3 0.00 0.00 0.00 50 1008.1
20260508122004 18 324 24.1 46.7 0.00 0.00 0.00 50 1008.1
20260508121504 18 323 30.6 46.7 0.00 0.00 0.00 50 1008.1
20260508120504 18 316 32.2 51.5 0.00 0.00 0.00 50 1008.1
20260508120004 18 321 33.8 41.8 0.00 0.00 0.00 50 1007.1
20260508115503 18 325 20.9 38.6 0.00 0.00 0.00 50 1007.1
20260508115004 18 321 24.1 48.3 0.00 0.00 0.00 50 1007.1
20260508114504 18 322 30.6 48.3 0.00 0.00 0.00 50 1007.1
20260508114004 18 326 33.8 48.3 0.00 0.00 0.00 50 1007.1
20260508113503 18 324 33.8 48.3 0.00 0.00 0.00 50 1007.1
20260508113004 18 326 32.2 41.8 0.00 0.00 0.00 50 1006.1
20260508112503 18 328 29.0 54.7 0.00 0.00 0.00 50 1006.1
20260508111504 18 325 30.6 54.7 0.00 0.00 0.00 50 1006.1
20260508111003 18 329 33.8 51.5 0.00 0.00 0.00 50 1006.1
20260508110505 18 329 25.7 54.7 0.00 0.00 0.00 50 1006.1
20260508105503 18 328 33.8 49.9 0.00 0.00 0.00 50 1006.1
20260508105004 19 324 35.4 49.9 0.00 0.00 0.00 50 1006.1
20260508104503 19 326 27.4 37.0 0.00 0.00 0.00 50 1005.1
20260508103004 20 327 25.7 48.3 0.00 0.00 0.00 50 1004.1
20260508102504 20 321 27.4 48.3 0.00 0.00 0.00 50 1004.1
20260508102004 20 325 33.8 48.3 0.00 0.00 0.00 50 1004.1
20260508101005 20 322 24.1 37.0 0.00 0.00 0.00 50 1004.1
20260508100504 20 321 22.5 37.0 0.00 0.00 0.00 50 1004.1
20260508100004 21 320 20.9 37.0 0.00 0.00 0.00 50 1004.1
20260508095504 21 320 27.4 35.4 0.00 0.00 0.00 50 1004.1
20260508095004 21 323 22.5 40.2 0.00 0.00 0.00 50 1004.1
20260508093004 22 322 25.7 46.7 0.00 0.00 0.00 50 1003.1
20260508092504 22 314 20.9 35.4 0.00 0.00 0.00 50 1003.1
20260508091504 23 314 20.9 25.7 0.00 0.00 0.00 50 1002.1
20260508091004 23 310 14.5 27.4 0.00 0.00 0.00 50 1002.1
20260508090504 23 311 22.5 27.4 0.00 0.00 0.00 50 1002.1
20260508090005 23 304 14.5 24.1 0.00 0.00 0.00 50 1002.1
20260508085003 23 304 9.7 22.5 0.00 0.00 0.00 50 1002.1
20260508084004 23 311 3.2 12.9 0.00 0.00 0.00 50 1002.1
20260508083504 23 317 3.2 8.0 0.00 0.00 0.00 50 1002.1
20260508083005 23 320 4.8 6.4 0.00 0.00 0.00 50 1002.1
20260508082503 23 327 3.2 6.4 0.00 0.00 0.00 50 1002.1
20260508082003 22 192 1.6 6.4 0.00 0.00 0.00 50 1002.1
20260508081003 22 172 3.2 6.4 0.00 0.00 0.00 50 1002.1
20260508080504 22 171 3.2 6.4 0.00 0.00 0.00 50 1002.1
20260508080004 22 157 3.2 8.0 0.00 0.00 0.00 50 1002.1
20260508075504 22 170 4.8 9.7 0.00 0.00 0.00 50 1002.1
20260508074504 23 184 8.0 9.7 0.00 0.00 0.00 50 1002.1
20260508074004 23 176 8.0 9.7 0.00 0.00 0.00 50 1002.1
20260508073504 23 182 8.0 9.7 0.00 0.00 0.00 50 1002.1
20260508072004 23 175 4.8 8.0 0.00 0.00 0.00 50 1002.1
20260508071504 23 174 1.6 6.4 0.00 0.00 0.00 50 1002.1
20260508071004 23 179 3.2 6.4 0.00 0.00 0.00 50 1002.1
20260508070504 23 183 4.8 6.4 0.00 0.00 0.00 50 1002.1
20260508070004 24 182 4.8 6.4 0.00 0.00 0.00 50 1001.1
20260508065503 24 193 1.6 3.2 0.00 0.00 0.00 50 1001.1
20260508065003 23 179 0.0 4.8 0.00 0.00 0.00 50 1001.1
20260508064504 23 169 1.6 4.8 0.00 0.00 0.00 50 1002.1
20260508064004 23 214 0.0 6.4 0.00 0.00 0.00 50 1002.1
20260508063504 23 286 1.6 6.4 0.00 0.00 0.00 50 1002.1
20260508062504 23 289 3.2 4.8 0.00 0.00 0.00 50 1001.1
20260508062005 22 300 0.0 9.7 0.00 0.00 0.00 50 1001.1
20260508061504 22 314 3.2 11.3 0.00 0.00 0.00 50 1002.1
20260508061003 22 310 6.4 11.3 0.00 0.00 0.00 50 1002.1
20260508060504 22 174 1.6 8.0 0.00 0.00 0.00 50 1002.1
20260508060004 22 172 3.2 9.7 0.00 0.00 0.00 50 1002.1
20260508055504 22 170 6.4 9.7 0.00 0.00 0.00 50 1002.1
20260508055004 22 157 3.2 9.7 0.00 0.00 0.00 50 1002.1
20260508054504 21 162 1.6 9.7 0.00 0.00 0.00 50 1002.1
20260508053504 22 176 6.4 11.3 0.00 0.00 0.00 50 1002.1
20260508053004 22 178 8.0 11.3 0.00 0.00 0.00 50 1003.1
20260508052003 22 194 6.4 12.9 0.00 0.00 0.00 50 1003.1
20260508051504 22 197 6.4 9.7 0.00 0.00 0.00 50 1002.1
20260508051004 22 201 6.4 9.7 0.00 0.00 0.00 50 1002.1
20260508050504 23 203 3.2 9.7 0.00 0.00 0.00 50 1002.1
20260508050004 23 205 3.2 8.0 0.00 0.00 0.00 50 1002.1
20260508045504 23 210 0.0 9.7 0.00 0.00 0.00 50 1002.1
20260508045004 23 210 3.2 9.7 0.00 0.00 0.00 50 1002.1
20260508044504 22 205 4.8 9.7 0.00 0.00 0.00 50 1002.1
20260508044004 22 201 8.0 9.7 0.00 0.00 0.00 50 1002.1
20260508043504 22 189 6.4 9.7 0.00 0.00 0.00 50 1002.1
20260508043004 22 175 4.8 9.7 0.00 0.00 0.00 50 1003.1
20260508040504 22 193 12.9 16.1 0.00 0.00 0.00 50 1003.1
20260508040004 22 189 12.9 17.7 0.00 0.00 0.00 50 1003.1
20260508035503 22 186 11.3 17.7 0.00 0.00 0.00 50 1003.1
20260508035003 22 187 8.0 17.7 0.00 0.00 0.00 50 1003.1
20260508034504 22 181 9.7 14.5 0.00 0.00 0.00 50 1003.1
20260508034003 22 175 9.7 16.1 0.00 0.00 0.00 50 1003.1
20260508033503 23 183 9.7 16.1 0.00 0.00 0.00 50 1003.1
20260508033004 23 185 9.7 14.5 0.00 0.00 0.00 50 1003.1
20260508032504 23 186 9.7 14.5 0.00 0.00 0.00 50 1003.1
20260508032004 23 196 8.0 11.3 0.00 0.00 0.00 50 1003.1
20260508031004 23 203 6.4 9.7 0.00 0.00 0.00 50 1003.1
20260508030503 23 197 6.4 9.7 0.00 0.00 0.00 50 1003.1
20260508025504 23 199 9.7 14.5 0.00 0.00 0.00 50 1004.1
20260508025004 24 196 9.7 14.5 0.00 0.00 0.00 50 1004.1
20260508024504 24 190 8.0 11.3 0.00 0.00 0.00 50 1003.1
20260508024003 23 196 6.4 9.7 0.00 0.00 0.00 50 1003.1
20260508023503 23 195 4.8 8.0 0.00 0.00 0.00 50 1003.1
20260508023003 23 200 4.8 6.4 0.00 0.00 0.00 50 1003.1
20260508022503 23 202 3.2 6.4 0.00 0.00 0.00 50 1003.1
20260508022003 23 187 4.8 11.3 0.00 0.00 0.00 50 1003.1
20260508021503 22 190 6.4 12.9 0.00 0.00 0.00 50 1004.1
20260508021004 22 196 9.7 12.9 0.00 0.00 0.00 50 1004.1
20260508020504 22 192 6.4 12.9 0.00 0.00 0.00 50 1004.1
20260508020004 22 188 6.4 14.5 0.00 0.00 0.00 50 1003.1
20260508015504 22 192 9.7 14.5 0.00 0.00 0.00 50 1003.1
20260508015004 22 199 9.7 16.1 0.00 0.00 0.00 50 1003.1
20260508014504 23 198 14.5 16.1 0.00 0.00 0.00 50 1004.1
20260508013504 23 199 9.7 12.9 0.00 0.00 0.00 50 1004.1
20260508013004 23 202 9.7 12.9 0.00 0.00 0.00 50 1003.1
20260508012504 23 202 6.4 9.7 0.00 0.00 0.00 50 1003.1
20260508011505 23 195 6.4 14.5 0.00 0.00 0.00 50 1005.1
20260508011004 23 195 6.4 14.5 0.00 0.00 0.00 50 1005.1
20260508010503 23 199 6.4 16.1 0.00 0.00 0.00 50 1005.1
20260508005004 23 190 9.7 14.5 0.00 0.00 0.00 50 1005.1
20260508004004 23 188 6.4 11.3 0.00 0.00 0.00 50 1005.1
20260508003505 23 189 4.8 8.0 0.00 0.00 0.00 50 1005.1
20260508003004 23 203 1.6 6.4 0.00 0.00 0.00 50 1005.1
20260508002504 23 210 4.8 6.4 0.00 0.00 0.00 50 1005.1
20260508002005 23 209 1.6 6.4 0.00 0.00 0.00 50 1005.1
20260508001504 23 206 4.8 6.4 0.00 0.00 0.00 50 1005.1
20260508001004 23 212 1.6 9.7 0.00 0.00 0.00 50 1005.1
20260508000503 23 213 4.8 9.7 0.00 0.00 0.00 50 1005.1
20260508000004 23 235 4.8 9.7 0.00 0.00 0.00 50 1004.1
20260507235004 24 227 4.8 9.7 0.00 0.00 0.00 50 1004.1
20260507234004 24 224 6.4 9.7 0.00 0.00 0.00 50 1004.1
20260507233004 25 184 4.8 6.4 0.00 0.00 0.00 50 1003.1
20260507232504 25 133 3.2 4.8 0.00 0.00 0.00 50 1003.1
20260507232003 25 113 1.6 6.4 0.00 0.00 0.00 50 1003.1
20260507231503 25 118 3.2 6.4 0.00 0.00 0.00 50 1004.1
20260507231003 25 142 0.0 8.0 0.00 0.00 0.00 50 1004.1
20260507230004 25 111 3.2 4.8 0.00 0.00 0.00 50 1005.1
20260507225504 25 125 1.6 4.8 0.00 0.00 0.00 50 1005.1
20260507225004 25 96 3.2 6.4 0.00 0.00 0.00 50 1005.1
20260507224504 26 74 0.0 6.4 0.00 0.00 0.00 50 1005.1
20260507224003 26 61 6.4 6.4 0.00 0.00 0.00 50 1005.1
20260507223003 26 4 0.0 4.8 0.00 0.00 0.00 50 1005.1
20260507222503 26 25 1.6 6.4 0.00 0.00 0.00 50 1005.1
20260507222004 26 24 3.2 9.7 0.00 0.00 0.00 50 1005.1
20260507221003 25 5 6.4 9.7 0.00 0.00 0.00 50 1005.1
20260507220504 25 24 3.2 6.4 0.00 0.00 0.00 50 1005.1
20260507220004 24 30 3.2 6.4 0.00 0.00 0.00 50 1006.1
20260507215505 23 21 1.6 6.4 0.00 0.00 0.00 50 1006.1
20260507215004 23 22 6.4 8.0 0.00 0.00 0.00 50 1006.1
20260507214503 22 24 4.8 8.0 0.00 0.00 0.00 50 1006.1
20260507214004 22 32 3.2 8.0 0.00 0.00 0.00 50 1006.1
20260507213504 21 90 3.2 6.4 0.00 0.00 0.00 50 1006.1
20260507213004 21 138 1.6 4.8 0.00 0.00 0.00 50 1006.1
20260507212503 21 137 3.2 4.8 0.00 0.00 0.00 50 1006.1
20260507212004 21 38 1.6 1.6 0.00 0.00 0.00 50 1006.1
20260507211003 20 292 0.0 1.6 0.00 0.00 0.00 50 1006.1
20260507205504 20 0 0.0 0.0 0.00 0.00 0.00 50 1007.1
20260507205003 20 0 0.0 0.0 0.00 0.00 0.00 50 1007.1
20260507204504 19 292 0.0 1.6 0.00 0.00 0.00 50 1007.1
20260507204004 19 292 0.0 3.2 0.00 0.00 0.00 50 1007.1
20260507203503 19 292 0.0 3.2 0.00 0.00 0.00 50 1007.1
20260507202004 18 331 1.6 3.2 0.00 0.00 0.00 50 1008.1
20260507201504 18 331 1.6 3.2 0.00 0.00 0.00 50 1008.1
20260507201003 18 337 1.6 4.8 0.00 0.00 0.00 50 1008.1
20260507200503 18 336 3.2 4.8 0.00 0.00 0.00 50 1008.1
20260507200004 18 324 3.2 4.8 0.00 0.00 0.00 50 1008.1
20260507195504 18 306 3.2 4.8 0.00 0.00 0.00 50 1008.1
20260507195005 18 306 1.6 4.8 0.00 0.00 0.00 50 1008.1
20260507194504 18 305 3.2 4.8 0.00 0.00 0.00 50 1008.1
20260507194004 18 318 1.6 4.8 0.00 0.00 0.00 50 1008.1
20260507193505 18 333 3.2 4.8 0.00 0.00 0.00 50 1008.1
20260507193004 18 356 1.6 3.2 0.00 0.00 0.00 50 1008.1
20260507192504 18 1 0.0 1.6 0.00 0.00 0.00 50 1008.1
20260507192004 18 352 0.0 1.6 0.00 0.00 0.00 50 1008.1
20260507191004 18 337 0.0 4.8 0.00 0.00 0.00 50 1008.1
20260507185504 18 331 1.6 6.4 0.00 0.00 0.00 50 1008.1
20260507185004 18 331 3.2 4.8 0.00 0.00 0.00 50 1008.1
20260507184504 18 1 0.0 1.6 0.00 0.00 0.00 50 1007.1
20260507184004 18 0 0.0 0.0 0.00 0.00 0.00 50 1007.1
20260507183004 18 0 0.0 0.0 0.00 0.00 0.00 50 1008.1
20260507182504 18 0 0.0 0.0 0.00 0.00 0.00 50 1008.1
20260507182004 18 46 0.0 1.6 0.00 0.00 0.00 50 1008.1
20260507181504 18 46 0.0 1.6 0.00 0.00 0.00 50 1008.1
20260507181003 18 0 0.0 0.0 0.00 0.00 0.00 50 1008.1
20260507180504 18 0 0.0 0.0 0.00 0.00 0.00 50 1008.1
20260507175504 18 300 0.0 3.2 0.00 0.00 0.00 50 1008.1
20260507174504 18 336 1.6 6.4 0.00 0.00 0.00 50 1008.1
20260507174004 18 333 6.4 6.4 0.00 0.00 0.00 50 1008.1
20260507173504 18 314 1.6 3.2 0.00 0.00 0.00 50 1008.1
20260507173004 18 314 0.0 1.6 0.00 0.00 0.00 50 1008.1
20260507172504 18 314 0.0 4.8 0.00 0.00 0.00 50 1008.1
20260507172004 18 312 1.6 4.8 0.00 0.00 0.00 50 1008.1
20260507171504 18 313 3.2 4.8 0.00 0.00 0.00 50 1007.1